| time (UTC) | temp F | wind direction | speed MPH | gust MPH | rain 1hr in | rain 24hr in | rain mn in | humidity % | barometer mb |
| 20260509133014 | 62 | 227 | 2.0 | 8.0 | 0.00 | 0.00 | 0.00 | 63 | 1010.8 |
| 20260509130013 | 60 | 360 | 0.0 | 0.0 | 0.00 | 0.00 | 0.00 | 64 | 1011.3 |
| 20260509123012 | 57 | 360 | 0.0 | 0.0 | 0.00 | 0.00 | 0.00 | 65 | 1011.8 |
| 20260509120011 | 54 | 233 | 0.0 | 2.0 | 0.00 | 0.00 | 0.00 | 69 | 1012.0 |
| 20260509113010 | 58 | 195 | 0.0 | 3.0 | 0.00 | 0.00 | 0.00 | 60 | 1010.6 |
| 20260509110009 | 58 | 226 | 0.0 | 2.0 | 0.00 | 0.00 | 0.00 | 59 | 1010.6 |
| 20260509103008 | 59 | 244 | 1.0 | 2.0 | 0.00 | 0.00 | 0.00 | 56 | 1010.2 |
| 20260509100007 | 60 | 245 | 0.0 | 0.0 | 0.00 | 0.00 | 0.00 | 56 | 1010.0 |
| 20260509093006 | 61 | 162 | 0.0 | 1.0 | 0.00 | 0.00 | 0.00 | 52 | 1009.4 |
| 20260509090005 | 61 | 134 | 0.0 | 2.0 | 0.00 | 0.00 | 0.00 | 52 | 1009.5 |
| 20260509083004 | 62 | 149 | 0.0 | 2.0 | 0.00 | 0.00 | 0.00 | 49 | 1009.3 |
| 20260509080003 | 64 | 111 | 1.0 | 2.0 | 0.00 | 0.00 | 0.00 | 41 | 1009.2 |
| 20260509073002 | 66 | 130 | 0.0 | 2.0 | 0.00 | 0.00 | 0.00 | 34 | 1008.7 |
| 20260509064045 | 69 | 109 | 3.0 | 3.0 | 0.00 | 0.00 | 0.00 | 31 | 1008.7 |
| 20260509061044 | 69 | 110 | 3.0 | 3.0 | 0.00 | 0.00 | 0.00 | 35 | 1008.6 |
| 20260509054043 | 69 | 160 | 0.0 | 0.0 | 0.00 | 0.00 | 0.00 | 48 | 1009.0 |
| 20260509051042 | 70 | 100 | 1.0 | 1.0 | 0.00 | 0.00 | 0.00 | 46 | 1008.6 |
| 20260509044041 | 73 | 197 | 1.0 | 1.0 | 0.00 | 0.00 | 0.00 | 41 | 1007.8 |
| 20260509041040 | 77 | 303 | 3.0 | 3.0 | 0.00 | 0.00 | 0.00 | 37 | 1007.0 |
| 20260509034039 | 70 | 35 | 5.0 | 5.0 | 0.00 | 0.00 | 0.00 | 43 | 1007.8 |
| 20260509031038 | 72 | 187 | 2.0 | 2.0 | 0.00 | 0.00 | 0.00 | 38 | 1005.9 |
| 20260509024037 | 75 | 176 | 2.0 | 4.0 | 0.00 | 0.00 | 0.00 | 29 | 1004.6 |
| 20260509021036 | 79 | 196 | 2.0 | 2.0 | 0.00 | 0.00 | 0.00 | 19 | 1003.2 |
| 20260509014035 | 83 | 188 | 1.0 | 2.0 | 0.00 | 0.00 | 0.00 | 18 | 1002.1 |
| 20260509011034 | 87 | 195 | 2.0 | 2.0 | 0.00 | 0.00 | 0.00 | 15 | 1001.0 |
| 20260509004033 | 88 | 185 | 1.0 | 1.0 | 0.00 | 0.00 | 0.00 | 14 | 1000.5 |
| 20260509001032 | 89 | 187 | 0.0 | 2.0 | 0.00 | 0.00 | 0.00 | 14 | 1000.3 |
| 20260508234031 | 89 | 243 | 3.0 | 7.0 | 0.00 | 0.00 | 0.00 | 14 | 1000.3 |
| 20260508231031 | 88 | 293 | 2.0 | 4.0 | 0.00 | 0.00 | 0.00 | 14 | 1000.5 |
| 20260508224030 | 88 | 51 | 1.0 | 3.0 | 0.00 | 0.00 | 0.00 | 15 | 1000.8 |